Location: Ernsee
(50.8780°N, 12.0389°E)
Time: 15:32:49
(UTC+00:00)

H-2A R/B - Pass Details

Date: 20 January 2020
Orbit: 503 x 540 km, 97.3° (Epoch: 21 February)

Event Time Altitude Azimuth Distance (km) Brightness Sun altitude
Rises 06:16:53 0° 6° (N) 2,713 6.2 -7.4°
Reaches altitude 10° 06:19:08 10° 357° (N) 1,816 5.2 -7.1°
Maximum altitude 06:22:42 34° 292° (WNW) 905 3.4 -6.6°
Drops below altitude 10° 06:26:14 10° 227° (SW) 1,796 5.2 -6.1°
Sets 06:28:27 0° 218° (SW) 2,678 6.2 -5.8°
